ABOUT US
vACC Philippines is a recognized member of the VATSIM network. We are dedicated to enchancing the online experience of both local and international virtual pilots. Mandated to provide professional and realistic air traffic operations.

vACC Philippines aims to provide the most realistic air traffic system simulation service that is close to the real thing as possible when flying on the VATSIM network.


METARS

RPLL 090900Z AUTO 26005KT 230V290 9999 NCD 31/24 Q1005


RPVM 090900Z 17005KT 9999 FEW020 SCT300 31/24 Q1006 RMK A2971


RPMD 090900Z 14005KT 9999 FEW015CB SCT090 BKN260 30/23 Q1007 RMK A2974 CB S SW-NW



AIRFIELDS COVERED


Manila (RPLL)

Subic Bay (RPLB)

Mactan-Cebu (RPVM)

Clark (RPLC)

Laoag (RPLI)


Davao (RPMD)


Bacolod (RPVB)


Zamboanga (RPMZ)


General Santos (RPMR)


Iloilo (RPVI)


Kalibo (RPVK)


Legazpi (RPLP)


Puerto Princesa (RPVP)